| time (UTC) | temp F | wind direction | speed MPH | gust MPH | rain 1hr in | rain 24hr in | rain mn in | humidity % | barometer mb |
| 20260901170311 | 88 | 260 | 4.0 | 5.0 | 0.00 | 0.08 | 0.00 | 74 | 1014.3 |
| 20260901165758 | 88 | 284 | 4.0 | 5.0 | 0.00 | 0.08 | 0.00 | 77 | 1014.3 |
| 20260901165259 | 88 | 229 | 0.0 | 5.0 | 0.00 | 0.08 | 0.00 | 78 | 1014.7 |
| 20260901165016 | 87 | 212 | 4.0 | 5.0 | 0.00 | 0.08 | 0.00 | 79 | 1014.7 |
| 20260901164257 | 87 | 236 | 3.0 | 5.0 | 0.00 | 0.08 | 0.00 | 78 | 1014.3 |
| 20260901164016 | 87 | 233 | 3.0 | 5.0 | 0.00 | 0.08 | 0.00 | 81 | 1014.7 |
| 20260901163256 | 87 | 246 | 4.0 | 4.0 | 0.00 | 0.08 | 0.00 | 81 | 1014.7 |
| 20260901162755 | 86 | 234 | 2.0 | 5.0 | 0.00 | 0.08 | 0.00 | 82 | 1014.7 |
| 20260901162253 | 86 | 251 | 3.0 | 5.0 | 0.00 | 0.08 | 0.00 | 81 | 1014.7 |
| 20260901161754 | 86 | 239 | 2.0 | 4.0 | 0.00 | 0.08 | 0.00 | 80 | 1014.7 |
| 20260901161252 | 85 | 212 | 3.0 | 4.0 | 0.00 | 0.08 | 0.00 | 79 | 1015.0 |
| 20260901160753 | 85 | 307 | 2.0 | 4.0 | 0.00 | 0.08 | 0.00 | 83 | 1015.0 |
| 20260901160254 | 85 | 253 | 2.0 | 4.0 | 0.00 | 0.08 | 0.00 | 83 | 1014.7 |
| 20260901160016 | 85 | 237 | 0.0 | 4.0 | 0.00 | 0.08 | 0.00 | 84 | 1014.7 |
| 20260901155252 | 84 | 285 | 4.0 | 6.0 | 0.00 | 0.08 | 0.00 | 83 | 1014.7 |
| 20260901154750 | 84 | 256 | 2.0 | 6.0 | 0.00 | 0.08 | 0.00 | 83 | 1014.7 |
| 20260901154250 | 84 | 242 | 3.0 | 5.0 | 0.00 | 0.08 | 0.00 | 85 | 1014.7 |
| 20260901153749 | 83 | 225 | 2.0 | 5.0 | 0.00 | 0.08 | 0.00 | 84 | 1014.7 |
| 20260901153250 | 83 | 254 | 3.0 | 6.0 | 0.00 | 0.08 | 0.00 | 84 | 1014.7 |
| 20260901153012 | 83 | 265 | 6.0 | 6.0 | 0.00 | 0.08 | 0.00 | 84 | 1014.7 |
| 20260901152248 | 83 | 210 | 3.0 | 4.0 | 0.00 | 0.08 | 0.00 | 87 | 1014.7 |
| 20260901152231 | 82 | 248 | 3.0 | 4.0 | 0.00 | 0.08 | 0.00 | 87 | 1014.7 |
| 20260901151247 | 82 | 240 | 1.0 | 4.0 | 0.00 | 0.08 | 0.00 | 87 | 1014.3 |
| 20260901150757 | 82 | 263 | 2.0 | 4.0 | 0.00 | 0.08 | 0.00 | 86 | 1014.7 |
| 20260901150246 | 82 | 224 | 3.0 | 4.0 | 0.00 | 0.08 | 0.00 | 86 | 1014.7 |
| 20260901150010 | 81 | 258 | 2.0 | 4.0 | 0.00 | 0.08 | 0.00 | 87 | 1014.7 |
| 20260901145245 | 81 | 215 | 2.0 | 3.0 | 0.00 | 0.08 | 0.00 | 87 | 1014.3 |
| 20260901144743 | 81 | 231 | 2.0 | 4.0 | 0.00 | 0.08 | 0.00 | 87 | 1014.7 |
| 20260901144243 | 81 | 246 | 3.0 | 4.0 | 0.00 | 0.08 | 0.00 | 87 | 1014.7 |
| 20260901143745 | 81 | 344 | 0.0 | 4.0 | 0.00 | 0.08 | 0.00 | 87 | 1014.7 |
| 20260901143245 | 80 | 228 | 2.0 | 4.0 | 0.00 | 0.08 | 0.00 | 87 | 1014.3 |
| 20260901143004 | 80 | 217 | 1.0 | 4.0 | 0.00 | 0.08 | 0.00 | 87 | 1014.3 |
| 20260901142242 | 80 | 250 | 2.0 | 3.0 | 0.00 | 0.08 | 0.00 | 88 | 1014.7 |
| 20260901141742 | 80 | 228 | 0.0 | 3.0 | 0.00 | 0.08 | 0.00 | 87 | 1014.7 |
| 20260901141241 | 80 | 217 | 2.0 | 3.0 | 0.00 | 0.08 | 0.00 | 88 | 1014.3 |
| 20260901140741 | 80 | 269 | 0.0 | 3.0 | 0.00 | 0.08 | 0.00 | 88 | 1014.3 |
| 20260901140239 | 80 | 236 | 2.0 | 3.0 | 0.00 | 0.08 | 0.00 | 88 | 1014.3 |
| 20260901135738 | 79 | 237 | 2.0 | 5.0 | 0.00 | 0.08 | 0.00 | 88 | 1014.3 |
| 20260901135239 | 79 | 260 | 3.0 | 5.0 | 0.00 | 0.08 | 0.00 | 88 | 1014.3 |
| 20260901134737 | 78 | 243 | 3.0 | 4.0 | 0.00 | 0.08 | 0.00 | 90 | 1014.3 |
| 20260901134239 | 78 | 245 | 1.0 | 6.0 | 0.00 | 0.08 | 0.00 | 90 | 1014.3 |
| 20260901133736 | 77 | 261 | 3.0 | 6.0 | 0.00 | 0.08 | 0.00 | 92 | 1014.3 |
| 20260901133237 | 77 | 240 | 1.0 | 4.0 | 0.00 | 0.08 | 0.00 | 93 | 1014.7 |
| 20260901132737 | 76 | 238 | 2.0 | 4.0 | 0.00 | 0.08 | 0.00 | 93 | 1014.3 |
| 20260901132235 | 76 | 229 | 2.0 | 3.0 | 0.00 | 0.08 | 0.00 | 94 | 1014.3 |
| 20260901131736 | 76 | 181 | 0.0 | 3.0 | 0.00 | 0.08 | 0.00 | 94 | 1014.3 |
| 20260901131233 | 75 | 260 | 1.0 | 3.0 | 0.00 | 0.08 | 0.00 | 94 | 1014.3 |
| 20260901130734 | 75 | 220 | 2.0 | 3.0 | 0.00 | 0.08 | 0.00 | 94 | 1014.7 |
| 20260901130233 | 75 | 233 | 1.0 | 3.0 | 0.00 | 0.08 | 0.00 | 95 | 1014.7 |
| 20260901125950 | 75 | 234 | 1.0 | 2.0 | 0.00 | 0.11 | 0.00 | 95 | 1014.3 |
| 20260901125234 | 75 | 229 | 2.0 | 2.0 | 0.00 | 0.11 | 0.00 | 95 | 1014.7 |
| 20260901125012 | 74 | 251 | 1.0 | 2.0 | 0.00 | 0.11 | 0.00 | 96 | 1014.7 |
| 20260901124233 | 74 | 227 | 1.0 | 2.0 | 0.00 | 0.11 | 0.00 | 96 | 1014.7 |
| 20260901123732 | 74 | 202 | 2.0 | 2.0 | 0.00 | 0.11 | 0.00 | 96 | 1014.7 |
| 20260901123229 | 74 | 240 | 2.0 | 2.0 | 0.00 | 0.11 | 0.00 | 96 | 1014.7 |
| 20260901122730 | 74 | 205 | 0.0 | 2.0 | 0.00 | 0.11 | 0.00 | 96 | 1014.7 |
| 20260901122230 | 74 | 224 | 0.0 | 2.0 | 0.00 | 0.11 | 0.00 | 96 | 1014.7 |
| 20260901121730 | 74 | 258 | 2.0 | 2.0 | 0.00 | 0.11 | 0.00 | 96 | 1014.7 |
| 20260901121229 | 73 | 235 | 1.0 | 2.0 | 0.00 | 0.11 | 0.00 | 97 | 1014.7 |
| 20260901121207 | 73 | 202 | 1.0 | 2.0 | 0.00 | 0.11 | 0.00 | 97 | 1014.3 |
| 20260901120228 | 73 | 197 | 1.0 | 2.0 | 0.00 | 0.13 | 0.00 | 97 | 1014.3 |
| 20260901115728 | 73 | 257 | 1.0 | 2.0 | 0.00 | 0.13 | 0.00 | 97 | 1014.3 |
| 20260901115457 | 73 | 235 | 0.0 | 2.0 | 0.00 | 0.13 | 0.00 | 97 | 1014.3 |
| 20260901114727 | 73 | 205 | 1.0 | 2.0 | 0.00 | 0.13 | 0.00 | 97 | 1014.3 |
| 20260901114224 | 73 | 215 | 2.0 | 2.0 | 0.00 | 0.13 | 0.00 | 97 | 1014.3 |
| 20260901113725 | 73 | 217 | 1.0 | 2.0 | 0.00 | 0.13 | 0.00 | 96 | 1014.3 |
| 20260901113445 | 73 | 209 | 1.0 | 2.0 | 0.00 | 0.13 | 0.00 | 96 | 1014.3 |
| 20260901112943 | 73 | 202 | 0.0 | 2.0 | 0.00 | 0.13 | 0.00 | 96 | 1014.0 |
| 20260901112224 | 73 | 217 | 0.0 | 0.0 | 0.00 | 0.13 | 0.00 | 96 | 1014.0 |
| 20260901111950 | 73 | 217 | 0.0 | 1.0 | 0.00 | 0.13 | 0.00 | 96 | 1013.7 |
| 20260901111221 | 73 | 224 | 0.0 | 2.0 | 0.00 | 0.13 | 0.00 | 96 | 1013.7 |
| 20260901110723 | 73 | 196 | 2.0 | 2.0 | 0.00 | 0.13 | 0.00 | 96 | 1014.0 |
| 20260901110221 | 73 | 222 | 1.0 | 2.0 | 0.00 | 0.13 | 0.00 | 96 | 1014.0 |
| 20260901105720 | 73 | 178 | 0.0 | 2.0 | 0.00 | 0.13 | 0.00 | 95 | 1013.7 |
| 20260901105219 | 73 | 172 | 1.0 | 1.0 | 0.00 | 0.13 | 0.00 | 95 | 1013.7 |
| 20260901104719 | 73 | 212 | 0.0 | 2.0 | 0.00 | 0.14 | 0.00 | 94 | 1013.7 |
| 20260901104219 | 74 | 215 | 1.0 | 2.0 | 0.00 | 0.14 | 0.00 | 94 | 1013.7 |
| 20260901103719 | 74 | 180 | 1.0 | 2.0 | 0.00 | 0.14 | 0.00 | 94 | 1013.3 |
| 20260901103220 | 74 | 116 | 1.0 | 2.0 | 0.00 | 0.14 | 0.00 | 93 | 1013.7 |
| 20260901102945 | 74 | 117 | 0.0 | 2.0 | 0.00 | 0.14 | 0.00 | 93 | 1013.7 |
| 20260901102216 | 75 | 190 | 0.0 | 2.0 | 0.00 | 0.14 | 0.00 | 93 | 1013.7 |
| 20260901101715 | 75 | 215 | 1.0 | 2.0 | 0.00 | 0.14 | 0.00 | 93 | 1013.7 |
| 20260901101215 | 75 | 217 | 1.0 | 2.0 | 0.00 | 0.14 | 0.00 | 93 | 1013.7 |
| 20260901100714 | 75 | 223 | 1.0 | 3.0 | 0.00 | 0.14 | 0.00 | 94 | 1013.7 |
| 20260901100435 | 74 | 230 | 2.0 | 4.0 | 0.00 | 0.14 | 0.00 | 94 | 1013.3 |
| 20260901095714 | 74 | 239 | 4.0 | 4.0 | 0.00 | 0.14 | 0.00 | 94 | 1013.3 |
| 20260901095213 | 74 | 209 | 2.0 | 2.0 | 0.00 | 0.14 | 0.00 | 94 | 1013.3 |
| 20260901094712 | 74 | 258 | 0.0 | 3.0 | 0.00 | 0.14 | 0.00 | 95 | 1013.3 |
| 20260901094212 | 74 | 223 | 1.0 | 3.0 | 0.00 | 0.14 | 0.00 | 95 | 1013.3 |
| 20260901093933 | 74 | 218 | 2.0 | 2.0 | 0.00 | 0.14 | 0.00 | 95 | 1013.7 |
| 20260901093211 | 74 | 224 | 1.0 | 2.0 | 0.00 | 0.14 | 0.00 | 95 | 1013.7 |
| 20260901092711 | 74 | 235 | 0.0 | 2.0 | 0.00 | 0.14 | 0.00 | 95 | 1013.3 |
| 20260901092210 | 74 | 236 | 0.0 | 2.0 | 0.00 | 0.14 | 0.00 | 95 | 1013.3 |
| 20260901091710 | 74 | 333 | 0.0 | 2.0 | 0.00 | 0.14 | 0.00 | 94 | 1013.7 |
| 20260901091223 | 74 | 179 | 0.0 | 2.0 | 0.00 | 0.14 | 0.00 | 94 | 1013.7 |
| 20260901090722 | 74 | 205 | 0.0 | 2.0 | 0.00 | 0.14 | 0.00 | 94 | 1013.7 |
| 20260901090208 | 74 | 219 | 1.0 | 2.0 | 0.00 | 0.14 | 0.00 | 94 | 1013.3 |
| 20260901085707 | 74 | 216 | 2.0 | 2.0 | 0.00 | 0.14 | 0.00 | 95 | 1013.3 |
| 20260901085207 | 74 | 217 | 2.0 | 2.0 | 0.00 | 0.14 | 0.00 | 95 | 1013.3 |
| 20260901084706 | 74 | 241 | 1.0 | 2.0 | 0.00 | 0.14 | 0.00 | 94 | 1013.3 |
| 20260901084434 | 74 | 227 | 0.0 | 2.0 | 0.00 | 0.14 | 0.00 | 94 | 1013.3 |
| 20260901083937 | 74 | 204 | 2.0 | 3.0 | 0.00 | 0.14 | 0.00 | 94 | 1013.7 |
| 20260901083205 | 74 | 214 | 1.0 | 3.0 | 0.00 | 0.14 | 0.00 | 94 | 1013.7 |
| 20260901082708 | 75 | 203 | 2.0 | 2.0 | 0.00 | 0.14 | 0.00 | 94 | 1013.3 |
| 20260901082110 | 75 | 215 | 0.0 | 2.0 | 0.00 | 0.14 | 0.00 | 94 | 1013.3 |
| 20260901081836 | 75 | 218 | 1.0 | 2.0 | 0.00 | 0.14 | 0.00 | 94 | 1012.9 |
| 20260901081108 | 75 | 117 | 0.0 | 2.0 | 0.00 | 0.14 | 0.00 | 94 | 1013.3 |
| 20260901080609 | 75 | 209 | 2.0 | 2.0 | 0.00 | 0.14 | 0.00 | 93 | 1013.3 |
| 20260901080115 | 75 | 192 | 1.0 | 4.0 | 0.00 | 0.14 | 0.00 | 93 | 1013.3 |
| 20260901075607 | 75 | 277 | 1.0 | 4.0 | 0.00 | 0.14 | 0.00 | 93 | 1013.3 |
| 20260901075120 | 75 | 210 | 2.0 | 3.0 | 0.00 | 0.14 | 0.00 | 93 | 1013.3 |
| 20260901074607 | 76 | 238 | 2.0 | 3.0 | 0.00 | 0.14 | 0.00 | 93 | 1013.3 |
| 20260901074106 | 76 | 222 | 2.0 | 3.0 | 0.00 | 0.14 | 0.00 | 93 | 1013.3 |
| 20260901073607 | 76 | 218 | 1.0 | 4.0 | 0.00 | 0.14 | 0.00 | 93 | 1013.3 |
| 20260901073106 | 76 | 259 | 2.0 | 4.0 | 0.00 | 0.14 | 0.00 | 93 | 1013.3 |
| 20260901073046 | 76 | 183 | 1.0 | 4.0 | 0.00 | 0.14 | 0.00 | 93 | 1013.3 |
| 20260901072104 | 76 | 223 | 2.0 | 4.0 | 0.00 | 0.14 | 0.00 | 93 | 1013.3 |
| 20260901071604 | 76 | 249 | 2.0 | 4.0 | 0.00 | 0.14 | 0.00 | 92 | 1013.3 |
| 20260901071104 | 76 | 250 | 1.0 | 2.0 | 0.00 | 0.14 | 0.00 | 92 | 1012.9 |
| 20260901070830 | 76 | 240 | 1.0 | 2.0 | 0.00 | 0.14 | 0.00 | 92 | 1012.9 |
| 20260901070113 | 76 | 223 | 1.0 | 2.0 | 0.00 | 0.14 | 0.00 | 92 | 1013.3 |
| 20260901065823 | 76 | 205 | 0.0 | 2.0 | 0.00 | 0.14 | 0.00 | 92 | 1013.3 |
| 20260901065101 | 76 | 251 | 1.0 | 2.0 | 0.00 | 0.14 | 0.00 | 92 | 1012.9 |
| 20260901064602 | 76 | 209 | 2.0 | 2.0 | 0.00 | 0.14 | 0.00 | 92 | 1012.9 |
| 20260901064100 | 76 | 173 | 0.0 | 3.0 | 0.00 | 0.14 | 0.00 | 92 | 1013.3 |
| 20260901063558 | 76 | 236 | 1.0 | 3.0 | 0.00 | 0.14 | 0.00 | 92 | 1012.9 |
| 20260901063058 | 76 | 225 | 1.0 | 4.0 | 0.00 | 0.14 | 0.00 | 92 | 1012.9 |
| 20260901062557 | 76 | 234 | 0.0 | 4.0 | 0.00 | 0.14 | 0.00 | 92 | 1012.9 |
| 20260901062323 | 76 | 214 | 1.0 | 4.0 | 0.00 | 0.14 | 0.00 | 92 | 1012.9 |
| 20260901061557 | 76 | 210 | 1.0 | 4.0 | 0.00 | 0.14 | 0.00 | 91 | 1012.9 |
| 20260901061056 | 76 | 256 | 2.0 | 4.0 | 0.00 | 0.14 | 0.00 | 91 | 1012.9 |
| 20260901060558 | 76 | 219 | 0.0 | 3.0 | 0.00 | 0.14 | 0.00 | 91 | 1012.9 |
| 20260901060109 | 76 | 249 | 2.0 | 3.0 | 0.00 | 0.14 | 0.00 | 91 | 1012.9 |
| 20260901055555 | 76 | 269 | 0.0 | 3.0 | 0.00 | 0.14 | 0.00 | 91 | 1013.3 |
| 20260901055054 | 76 | 242 | 1.0 | 2.0 | 0.00 | 0.14 | 0.00 | 91 | 1012.9 |
| 20260901054554 | 77 | 234 | 2.0 | 4.0 | 0.00 | 0.14 | 0.00 | 91 | 1012.9 |
| 20260901054054 | 77 | 234 | 2.0 | 4.0 | 0.00 | 0.14 | 0.00 | 91 | 1012.9 |
| 20260901053815 | 77 | 248 | 2.0 | 4.0 | 0.00 | 0.14 | 0.00 | 91 | 1012.9 |
| 20260901053054 | 76 | 258 | 2.0 | 4.0 | 0.00 | 0.14 | 0.00 | 91 | 1013.3 |
| 20260901052818 | 76 | 247 | 2.0 | 3.0 | 0.00 | 0.14 | 0.00 | 91 | 1012.9 |
| 20260901052051 | 76 | 264 | 3.0 | 3.0 | 0.00 | 0.14 | 0.00 | 92 | 1012.9 |
| 20260901051552 | 76 | 219 | 2.0 | 4.0 | 0.00 | 0.14 | 0.00 | 92 | 1013.3 |
| 20260901051050 | 76 | 247 | 1.0 | 4.0 | 0.00 | 0.14 | 0.00 | 92 | 1013.3 |
| 20260901050553 | 76 | 230 | 0.0 | 3.0 | 0.00 | 0.14 | 0.00 | 92 | 1012.9 |
| 20260901045807 | 76 | 214 | 2.0 | 3.0 | 0.00 | 0.14 | 0.14 | 91 | 1013.3 |
| 20260901045309 | 76 | 226 | 2.0 | 3.0 | 0.00 | 0.14 | 0.14 | 91 | 1013.3 |
| 20260901044550 | 76 | 223 | 2.0 | 3.0 | 0.00 | 0.14 | 0.14 | 91 | 1013.3 |
| 20260901044049 | 76 | 233 | 2.0 | 2.0 | 0.00 | 0.14 | 0.14 | 91 | 1013.3 |
| 20260901043547 | 76 | 229 | 1.0 | 2.0 | 0.00 | 0.14 | 0.14 | 91 | 1013.3 |
| 20260901043047 | 76 | 211 | 0.0 | 2.0 | 0.00 | 0.14 | 0.14 | 91 | 1013.3 |
| 20260901042548 | 76 | 202 | 0.0 | 2.0 | 0.00 | 0.14 | 0.14 | 91 | 1013.7 |
| 20260901042046 | 76 | 173 | 0.0 | 3.0 | 0.00 | 0.14 | 0.14 | 91 | 1013.7 |
| 20260901041545 | 76 | 267 | 1.0 | 3.0 | 0.00 | 0.14 | 0.14 | 90 | 1013.7 |
| 20260901041044 | 76 | 154 | 0.0 | 2.0 | 0.00 | 0.14 | 0.14 | 90 | 1013.3 |
| 20260901040810 | 76 | 226 | 1.0 | 2.0 | 0.00 | 0.14 | 0.14 | 90 | 1013.3 |
| 20260901040043 | 76 | 242 | 2.0 | 2.0 | 0.00 | 0.14 | 0.14 | 90 | 1013.7 |
| 20260901035543 | 76 | 217 | 0.0 | 2.0 | 0.00 | 0.14 | 0.14 | 90 | 1013.3 |
| 20260901035045 | 76 | 224 | 0.0 | 2.0 | 0.00 | 0.14 | 0.14 | 91 | 1013.3 |
| 20260901034543 | 76 | 246 | 2.0 | 2.0 | 0.00 | 0.14 | 0.14 | 91 | 1013.7 |
| 20260901034043 | 76 | 204 | 1.0 | 2.0 | 0.00 | 0.14 | 0.14 | 91 | 1013.7 |
| 20260901033541 | 76 | 214 | 1.0 | 2.0 | 0.00 | 0.14 | 0.14 | 91 | 1013.7 |
| 20260901033042 | 76 | 204 | 1.0 | 2.0 | 0.00 | 0.14 | 0.14 | 91 | 1013.7 |
| 20260901032541 | 76 | 231 | 2.0 | 2.0 | 0.00 | 0.14 | 0.14 | 90 | 1013.3 |
| 20260901032039 | 77 | 251 | 0.0 | 2.0 | 0.00 | 0.14 | 0.14 | 90 | 1013.7 |
| 20260901031542 | 77 | 209 | 0.0 | 2.0 | 0.00 | 0.14 | 0.14 | 89 | 1013.7 |
| 20260901031039 | 77 | 322 | 0.0 | 3.0 | 0.00 | 0.14 | 0.14 | 89 | 1013.7 |
| 20260901030538 | 77 | 250 | 0.0 | 3.0 | 0.00 | 0.14 | 0.14 | 89 | 1013.7 |
| 20260901030303 | 78 | 247 | 2.0 | 2.0 | 0.00 | 0.15 | 0.14 | 88 | 1013.7 |
| 20260901025538 | 78 | 237 | 1.0 | 3.0 | 0.00 | 0.15 | 0.14 | 88 | 1013.3 |
| 20260901025037 | 78 | 226 | 2.0 | 3.0 | 0.00 | 0.15 | 0.14 | 88 | 1013.3 |
| 20260901024536 | 78 | 221 | 2.0 | 3.0 | 0.00 | 0.15 | 0.14 | 89 | 1013.3 |
| 20260901024036 | 77 | 227 | 2.0 | 3.0 | 0.00 | 0.15 | 0.14 | 91 | 1013.3 |
| 20260901023535 | 77 | 215 | 2.0 | 3.0 | 0.00 | 0.15 | 0.14 | 92 | 1013.3 |
| 20260901023035 | 77 | 213 | 2.0 | 3.0 | 0.00 | 0.15 | 0.14 | 93 | 1013.3 |
| 20260901022534 | 76 | 202 | 2.0 | 2.0 | 0.00 | 0.15 | 0.14 | 94 | 1013.7 |
| 20260901022033 | 76 | 232 | 1.0 | 3.0 | 0.00 | 0.15 | 0.14 | 95 | 1013.7 |
| 20260901021549 | 76 | 191 | 1.0 | 3.0 | 0.00 | 0.15 | 0.14 | 95 | 1013.3 |
| 20260901021032 | 76 | 148 | 2.0 | 2.0 | 0.00 | 0.15 | 0.14 | 95 | 1013.7 |
| 20260901020533 | 76 | 167 | 0.0 | 2.0 | 0.00 | 0.15 | 0.14 | 95 | 1014.0 |
| 20260901020032 | 76 | 293 | 0.0 | 2.0 | 0.00 | 0.15 | 0.14 | 95 | 1014.0 |
| 20260901015532 | 76 | 279 | 1.0 | 1.0 | 0.00 | 0.15 | 0.14 | 95 | 1014.0 |
| 20260901015030 | 77 | 325 | 0.0 | 0.0 | 0.00 | 0.16 | 0.14 | 94 | 1014.0 |
| 20260901014529 | 77 | 325 | 0.0 | 2.0 | 0.00 | 0.16 | 0.14 | 94 | 1013.7 |
| 20260901014250 | 77 | 246 | 1.0 | 2.0 | 0.00 | 0.17 | 0.14 | 94 | 1013.7 |
| 20260901013531 | 77 | 321 | 0.0 | 0.0 | 0.00 | 0.17 | 0.14 | 94 | 1013.7 |
| 20260901013029 | 77 | 326 | 0.0 | 1.0 | 0.00 | 0.17 | 0.14 | 93 | 1013.7 |
| 20260901012529 | 78 | 224 | 0.0 | 1.0 | 0.00 | 0.17 | 0.14 | 93 | 1013.3 |
| 20260901012027 | 78 | 255 | 0.0 | 1.0 | 0.00 | 0.17 | 0.14 | 93 | 1013.3 |
| 20260901011527 | 78 | 297 | 0.0 | 2.0 | 0.00 | 0.17 | 0.14 | 92 | 1013.3 |
| 20260901011028 | 78 | 229 | 0.0 | 3.0 | 0.00 | 0.17 | 0.14 | 92 | 1013.3 |
| 20260901010528 | 78 | 269 | 0.0 | 3.0 | 0.00 | 0.18 | 0.14 | 92 | 1012.9 |
| 20260901010027 | 78 | 184 | 1.0 | 3.0 | 0.00 | 0.18 | 0.14 | 92 | 1012.9 |
| 20260901005526 | 78 | 222 | 0.0 | 3.0 | 0.00 | 0.18 | 0.14 | 92 | 1012.9 |
| 20260901005023 | 78 | 224 | 0.0 | 3.0 | 0.00 | 0.18 | 0.14 | 92 | 1012.5 |
| 20260901004525 | 78 | 188 | 2.0 | 3.0 | 0.00 | 0.18 | 0.14 | 92 | 1012.9 |
| 20260901004023 | 78 | 201 | 2.0 | 2.0 | 0.00 | 0.18 | 0.14 | 93 | 1012.9 |
| 20260901003522 | 78 | 137 | 1.0 | 2.0 | 0.00 | 0.18 | 0.14 | 93 | 1013.3 |
| 20260901003023 | 78 | 210 | 1.0 | 2.0 | 0.00 | 0.18 | 0.14 | 93 | 1013.3 |
| 20260901002522 | 78 | 230 | 0.0 | 1.0 | 0.00 | 0.18 | 0.14 | 92 | 1013.3 |
| 20260901002020 | 78 | 235 | 0.0 | 1.0 | 0.00 | 0.18 | 0.14 | 92 | 1013.3 |
| 20260901001749 | 79 | 269 | 0.0 | 1.0 | 0.00 | 0.18 | 0.14 | 92 | 1013.3 |
| 20260901001021 | 79 | 326 | 0.0 | 1.0 | 0.00 | 0.18 | 0.14 | 91 | 1012.9 |
| 20260901000749 | 79 | 217 | 0.0 | 2.0 | 0.00 | 0.18 | 0.14 | 91 | 1012.9 |
| 20260901000022 | 79 | 286 | 0.0 | 1.0 | 0.00 | 0.18 | 0.14 | 91 | 1012.9 |
| 20260831235520 | 79 | 269 | 0.0 | 1.0 | 0.00 | 0.18 | 0.14 | 91 | 1012.5 |
| 20260831235017 | 79 | 197 | 0.0 | 2.0 | 0.00 | 0.18 | 0.14 | 90 | 1012.5 |
| 20260831234520 | 79 | 343 | 0.0 | 2.0 | 0.00 | 0.18 | 0.14 | 90 | 1012.5 |
| 20260831234017 | 80 | 261 | 2.0 | 2.0 | 0.00 | 0.18 | 0.14 | 90 | 1012.5 |
| 20260831233519 | 80 | 297 | 0.0 | 2.0 | 0.00 | 0.18 | 0.14 | 90 | 1012.5 |
| 20260831233016 | 80 | 258 | 1.0 | 2.0 | 0.00 | 0.18 | 0.14 | 89 | 1012.2 |
| 20260831232524 | 80 | 79 | 0.0 | 3.0 | 0.00 | 0.18 | 0.14 | 88 | 1011.9 |
| 20260831232016 | 80 | 74 | 1.0 | 3.0 | 0.00 | 0.18 | 0.14 | 87 | 1011.9 |
| 20260831231516 | 80 | 180 | 1.0 | 3.0 | 0.00 | 0.18 | 0.14 | 89 | 1012.2 |
| 20260831231016 | 80 | 167 | 2.0 | 3.0 | 0.01 | 0.18 | 0.14 | 91 | 1012.5 |
| 20260831230733 | 80 | 212 | 0.0 | 2.0 | 0.01 | 0.18 | 0.14 | 91 | 1013.3 |
| 20260831230013 | 80 | 253 | 1.0 | 3.0 | 0.01 | 0.18 | 0.14 | 91 | 1013.3 |
| 20260831225514 | 80 | 271 | 1.0 | 3.0 | 0.01 | 0.18 | 0.14 | 91 | 1013.3 |
| 20260831225012 | 80 | 257 | 1.0 | 3.0 | 0.01 | 0.18 | 0.14 | 91 | 1012.9 |
| 20260831224512 | 79 | 247 | 1.0 | 3.0 | 0.03 | 0.18 | 0.14 | 92 | 1012.9 |
| 20260831224012 | 79 | 265 | 2.0 | 3.0 | 0.03 | 0.18 | 0.14 | 93 | 1012.9 |
| 20260831223736 | 80 | 278 | 1.0 | 3.0 | 0.03 | 0.18 | 0.14 | 94 | 1012.5 |
| 20260831223011 | 79 | 329 | 2.0 | 3.0 | 0.03 | 0.18 | 0.14 | 93 | 1012.5 |
| 20260831222510 | 79 | 272 | 0.0 | 3.0 | 0.05 | 0.18 | 0.14 | 93 | 1012.5 |
| 20260831222008 | 79 | 292 | 3.0 | 3.0 | 0.05 | 0.18 | 0.14 | 93 | 1012.5 |
| 20260831221734 | 79 | 249 | 2.0 | 2.0 | 0.05 | 0.19 | 0.14 | 92 | 1012.2 |
| 20260831221455 | 79 | 140 | 2.0 | 4.0 | 0.04 | 0.18 | 0.13 | 92 | 1012.5 |
| 20260831220509 | 79 | 225 | 2.0 | 4.0 | 0.04 | 0.18 | 0.13 | 92 | 1012.9 |
| 20260831220010 | 79 | 304 | 2.0 | 3.0 | 0.04 | 0.18 | 0.13 | 92 | 1012.9 |
| 20260831215727 | 80 | 221 | 1.0 | 3.0 | 0.04 | 0.18 | 0.13 | 91 | 1012.9 |
| 20260831215006 | 80 | 286 | 2.0 | 3.0 | 0.04 | 0.19 | 0.13 | 91 | 1012.9 |
| 20260831214727 | 81 | 255 | 0.0 | 3.0 | 0.02 | 0.17 | 0.11 | 89 | 1012.5 |
| 20260831214005 | 81 | 325 | 2.0 | 3.0 | 0.02 | 0.17 | 0.11 | 87 | 1012.5 |
| 20260831213505 | 82 | 221 | 0.0 | 2.0 | 0.02 | 0.17 | 0.11 | 85 | 1012.5 |
| 20260831213005 | 83 | 195 | 2.0 | 3.0 | 0.02 | 0.17 | 0.11 | 83 | 1012.5 |
| 20260831212503 | 83 | 259 | 2.0 | 3.0 | 0.00 | 0.15 | 0.09 | 81 | 1012.5 |
| 20260831212004 | 83 | 159 | 1.0 | 3.0 | 0.00 | 0.15 | 0.09 | 79 | 1012.5 |
| 20260831211502 | 83 | 253 | 1.0 | 3.0 | 0.00 | 0.15 | 0.09 | 80 | 1012.2 |
| 20260831211002 | 83 | 249 | 2.0 | 5.0 | 0.00 | 0.15 | 0.09 | 81 | 1012.5 |
| 20260831210503 | 83 | 273 | 2.0 | 5.0 | 0.01 | 0.15 | 0.09 | 82 | 1012.5 |
| 20260831210002 | 83 | 39 | 1.0 | 4.0 | 0.02 | 0.15 | 0.09 | 83 | 1012.2 |
| 20260831205944 | 83 | 249 | 1.0 | 4.0 | 0.02 | 0.15 | 0.09 | 82 | 1011.9 |
| 20260831205001 | 83 | 196 | 1.0 | 4.0 | 0.02 | 0.15 | 0.09 | 82 | 1011.9 |
| 20260831204459 | 83 | 243 | 1.0 | 4.0 | 0.02 | 0.15 | 0.09 | 81 | 1011.9 |
| 20260831203959 | 82 | 251 | 2.0 | 4.0 | 0.02 | 0.15 | 0.09 | 84 | 1012.2 |
| 20260831203459 | 82 | 180 | 2.0 | 4.0 | 0.02 | 0.15 | 0.09 | 83 | 1012.2 |
| 20260831202958 | 82 | 155 | 0.0 | 3.0 | 0.02 | 0.15 | 0.09 | 84 | 1012.5 |
| 20260831202723 | 81 | 259 | 3.0 | 3.0 | 0.02 | 0.15 | 0.09 | 86 | 1012.5 |
| 20260831201959 | 81 | 237 | 2.0 | 2.0 | 0.02 | 0.15 | 0.09 | 88 | 1012.5 |
| 20260831201459 | 81 | 264 | 0.0 | 3.0 | 0.02 | 0.15 | 0.09 | 86 | 1012.5 |
| 20260831200956 | 81 | 256 | 1.0 | 4.0 | 0.02 | 0.15 | 0.09 | 85 | 1012.9 |
| 20260831200457 | 82 | 288 | 1.0 | 4.0 | 0.01 | 0.14 | 0.08 | 81 | 1013.3 |
| 20260831195955 | 82 | 259 | 0.0 | 5.0 | 0.00 | 0.13 | 0.07 | 79 | 1013.3 |
| 20260831195456 | 82 | 244 | 1.0 | 6.0 | 0.00 | 0.13 | 0.07 | 78 | 1013.3 |
| 20260831194954 | 83 | 253 | 2.0 | 6.0 | 0.00 | 0.13 | 0.07 | 77 | 1013.3 |
| 20260831194454 | 83 | 246 | 3.0 | 4.0 | 0.00 | 0.13 | 0.07 | 77 | 1012.9 |
| 20260831194218 | 82 | 227 | 1.0 | 4.0 | 0.00 | 0.13 | 0.07 | 78 | 1012.9 |
| 20260831193454 | 82 | 211 | 4.0 | 4.0 | 0.00 | 0.13 | 0.07 | 78 | 1012.9 |
| 20260831193211 | 81 | 250 | 2.0 | 4.0 | 0.00 | 0.13 | 0.07 | 79 | 1012.5 |
| 20260831192451 | 81 | 210 | 2.0 | 3.0 | 0.00 | 0.13 | 0.07 | 82 | 1012.9 |
| 20260831191951 | 81 | 179 | 2.0 | 2.0 | 0.01 | 0.13 | 0.07 | 81 | 1012.5 |
| 20260831191450 | 81 | 304 | 1.0 | 2.0 | 0.01 | 0.13 | 0.07 | 80 | 1012.9 |
| 20260831190951 | 81 | 256 | 0.0 | 2.0 | 0.01 | 0.13 | 0.07 | 79 | 1012.9 |
| 20260831190449 | 82 | 219 | 1.0 | 5.0 | 0.01 | 0.13 | 0.07 | 77 | 1012.9 |
| 20260831185950 | 82 | 249 | 2.0 | 5.0 | 0.01 | 0.13 | 0.07 | 75 | 1012.9 |
| 20260831185448 | 82 | 232 | 3.0 | 5.0 | 0.01 | 0.13 | 0.07 | 75 | 1012.9 |
| 20260831184947 | 82 | 246 | 3.0 | 5.0 | 0.01 | 0.13 | 0.07 | 75 | 1012.9 |
| 20260831184448 | 80 | 223 | 2.0 | 4.0 | 0.01 | 0.13 | 0.07 | 78 | 1012.9 |
| 20260831183948 | 80 | 231 | 2.0 | 2.0 | 0.01 | 0.16 | 0.07 | 78 | 1012.5 |
| 20260831183448 | 80 | 291 | 1.0 | 3.0 | 0.01 | 0.16 | 0.07 | 77 | 1013.3 |
| 20260831182945 | 80 | 237 | 2.0 | 3.0 | 0.01 | 0.16 | 0.07 | 77 | 1013.3 |
| 20260831182445 | 80 | 260 | 0.0 | 4.0 | 0.01 | 0.16 | 0.07 | 76 | 1013.3 |
| 20260831181944 | 81 | 221 | 2.0 | 7.0 | 0.00 | 0.15 | 0.06 | 74 | 1012.9 |
| 20260831181446 | 82 | 245 | 3.0 | 7.0 | 0.00 | 0.15 | 0.06 | 72 | 1013.3 |
| 20260831180944 | 82 | 196 | 4.0 | 7.0 | 0.00 | 0.15 | 0.06 | 73 | 1013.3 |
| 20260831180444 | 82 | 187 | 2.0 | 7.0 | 0.00 | 0.15 | 0.06 | 72 | 1013.3 |
| 20260831175942 | 82 | 232 | 3.0 | 9.0 | 0.00 | 0.15 | 0.06 | 71 | 1013.3 |
| 20260831175442 | 82 | 289 | 2.0 | 9.0 | 0.00 | 0.15 | 0.06 | 70 | 1013.3 |
| 20260831174941 | 83 | 229 | 3.0 | 6.0 | 0.00 | 0.15 | 0.06 | 73 | 1012.9 |
| 20260831174440 | 82 | 227 | 3.0 | 10.0 | 0.00 | 0.15 | 0.06 | 72 | 1012.9 |
| 20260831173942 | 82 | 180 | 6.0 | 10.0 | 0.00 | 0.15 | 0.06 | 72 | 1013.3 |
| 20260831173439 | 81 | 193 | 3.0 | 10.0 | 0.00 | 0.15 | 0.06 | 72 | 1013.3 |
| 20260831172939 | 81 | 180 | 6.0 | 7.0 | 0.00 | 0.15 | 0.06 | 71 | 1013.3 |
| 20260831172438 | 81 | 181 | 3.0 | 6.0 | 0.00 | 0.15 | 0.06 | 73 | 1013.3 |
| 20260831171939 | 81 | 230 | 4.0 | 6.0 | 0.00 | 0.15 | 0.06 | 71 | 1013.7 |
| 20260831171440 | 81 | 185 | 5.0 | 9.0 | 0.00 | 0.15 | 0.06 | 72 | 1013.7 |
| 20260831170937 | 81 | 224 | 4.0 | 9.0 | 0.00 | 0.15 | 0.06 | 72 | 1013.7 |
| 20260831170439 | 81 | 148 | 7.0 | 9.0 | 0.00 | 0.15 | 0.06 | 71 | 1013.7 |